Terug naar catalogus

STARLINK-4473

ActiefCommunicatieSSO
NORAD 53660·PAYLOAD·🇺🇸 United States

Gelanceerd Aug 31, 2022 vanaf Vandenberg Space Force Base

Loading…

Volgende Passages (komende 24 uur)

TLE

VersSource: CelesTrak SupGP

Epoch: Sep 15, 2026, 03:00 UTC

1 53660C 22105N   26258.12548611  .00031367  00000+0  21775-2 0  2582
2 53660  97.2844 132.2394 0002079  80.5415 301.3223 15.05646244    13

Volg STARLINK-4473 in realtime met AllMySat

Download on the App Store